Skip Page Navigation
NASA JPL Caltech
NASA Logo - Jet Propulsion Laboratory + View the NASA Portal
+ Center for Near-Earth Object Studies
JPL Home Earth Solar System Stars & Galaxies Technology
JPL Solar System Dynamics
BODIES ORBITS EPHEMERIDES TOOLS PHYSICAL DATA DISCOVERY FAQ SITE MAP
IMPORTANT: The SSD Announcement email list is now available. Major changes are coming in the near future, including possible hostname and/or URL changes. To be notified of such changes, subscribe to this email list.

Please visit this page for more details.


JPL Small-Body Database Browser
Search: [ help ]  
410795 (2009 HK32)
Classification: Main-belt Asteroid          SPK-ID: 2410795
Ephemeris | Orbit Diagram | Orbital Elements | Mission Design | Physical Parameters | Discovery Circumstances ]

[ show orbit diagram ]
Orbital Elements at Epoch 2458600.5 (2019-Apr-27.0) TDB
Reference: JPL 11 (heliocentric ecliptic J2000)
 Element Value Uncertainty (1-sigma)   Units 
e .1034944232174394 5.1873e-08  
a 2.47760181802053 4.0472e-08 au
q 2.221183846902016 1.3379e-07 au
i 7.091581673458697 7.3867e-06 deg
node 160.74415310167 4.166e-05 deg
peri 233.6057358119422 5.4051e-05 deg
M 22.39409857448933 3.4823e-05 deg
tp 2458511.891215687656
(2019-Jan-28.39121569)
0.00013737 TDB
period 1424.445027172572
3.90
3.4903e-05
9.556e-08
d
yr
n .2527300058146687 6.1925e-09 deg/d
Q 2.734019789139044 4.466e-08 au
  Orbit Determination Parameters
   # obs. used (total)      131  
   data-arc span      3437 days (9.41 yr)  
   first obs. used      2009-04-19  
   last obs. used      2018-09-16  
   planetary ephem.      DE431  
   SB-pert. ephem.      SB431-N16  
   condition code      0  
   norm. resid. RMS      .57485  
   source      ORB  
   producer      Otto Matic  
   solution date      2018-Oct-03 13:09:28  

Additional Information
 Earth MOID = 1.23415 au 
 Jupiter MOID = 2.66527 au 
 T_jup = 3.462 
[ show covariance matrix ]

Ephemeris | Orbit Diagram | Orbital Elements | Mission Design | Physical Parameters | Discovery Circumstances ]

Physical Parameter Table
Parameter Symbol Value Units Sigma Reference Notes
absolute magnitude H 16.9   n/a MPO455920  

410795 (2009 HK32)          Discovered 2009-Apr-19 by Spacewatch at Kitt Peak
Reference: Last Updated: 2014-10-09

Alternate Designations
 2009 HK32 = 2014 QS206 
Ephemeris | Orbit Diagram | Orbital Elements | Mission Design | Physical Parameters | Discovery Circumstances ]
ABOUT SSD CREDITS/AWARDS PRIVACY/COPYRIGHT GLOSSARY LINKS
FirstGov 2020-Jan-23 14:07 UT
(server date/time)  
NASA Home Page
Site Manager:   Ryan S. Park
Webmaster  Alan B. Chamberlin